Location: Góry Miechowskie
(50.3599°N, 20.1803°E)
Time: 02:29:23
(UTC+00:00)

Vanguard 2 - Pass Details

Date: 17 September 2024
Orbit: 552 x 2910 km, 32.9° (Epoch: 09 October)

Event Time Altitude Azimuth Distance (km) Brightness Sun altitude
Rises 07:23:33 0° 250° (WSW) 4,353 11.1 27.2°
Reaches altitude 10° 07:29:48 10° 217° (SW) 4,007 11.3 28.1°
Maximum altitude 07:32:06 11° 204° (SSW) 4,153 11.5 28.4°
Drops below altitude 10° 07:34:37 10° 192° (SSW) 4,448 11.8 28.7°
Sets 07:43:33 0° 163° (SSE) 6,125 12.9 29.8°
